Time,TemperatureF,DewpointF,PressureIn,WindDirection,WindDirectionDegrees,WindSpeedMPH,WindSpeedGustMPH,Humidity,HourlyPrecipIn,Conditions,Clouds,dailyrainin,SoftwareType,DateUTC
2013-11-16 00:03:00,38.1,36.5,29.85,SSE,147,2.0,8.0,94,0.00,CLR,,0.00,WeatherDisplay:10.37,2013-11-16 06:03:00,
2013-11-16 00:13:00,38.3,36.7,29.85,South,170,3.0,10.0,94,0.00,CLR,,0.00,WeatherDisplay:10.37,2013-11-16 06:13:00,
2013-11-16 00:23:00,38.3,36.7,29.84,South,183,3.0,10.0,94,0.00,CLR,,0.00,WeatherDisplay:10.37,2013-11-16 06:23:00,
2013-11-16 00:33:00,38.3,36.7,29.84,South,179,2.0,9.0,94,0.00,CLR,,0.00,WeatherDisplay:10.37,2013-11-16 06:33:00,
2013-11-16 00:43:00,38.3,36.7,29.84,South,184,3.0,10.0,94,0.00,CLR,,0.00,WeatherDisplay:10.37,2013-11-16 06:43:00,
2013-11-16 08:33:00,43.7,43.4,29.72,SSE,167,8.0,18.0,99,0.00,CLR,,0.00,WeatherDisplay:10.37,2013-11-16 14:33:00,
2013-11-16 08:43:00,44.2,43.9,29.70,SE,145,10.0,31.0,99,0.00,CLR,,0.00,WeatherDisplay:10.37,2013-11-16 14:43:00,
2013-11-16 08:53:00,44.7,44.5,29.72,SSW,205,7.0,28.0,99,0.00,CLR,,0.00,WeatherDisplay:10.37,2013-11-16 14:53:00,
2013-11-16 09:03:00,45.0,44.7,29.72,South,185,10.0,22.0,99,0.00,CLR,,0.00,WeatherDisplay:10.37,2013-11-16 15:03:00,
2013-11-16 09:13:00,45.5,45.2,29.71,South,177,8.0,21.0,99,0.00,CLR,,0.00,WeatherDisplay:10.37,2013-11-16 15:13:00,
2013-11-16 09:23:00,45.7,45.4,29.72,South,178,10.0,26.0,99,0.00,CLR,,0.00,WeatherDisplay:10.37,2013-11-16 15:23:00,
2013-11-16 09:33:00,45.9,45.6,29.71,South,191,10.0,25.0,99,0.00,CLR,,0.00,WeatherDisplay:10.37,2013-11-16 15:33:00,
2013-11-16 09:43:00,46.4,46.1,29.71,SSE,165,7.0,25.0,99,0.00,CLR,,0.00,WeatherDisplay:10.37,2013-11-16 15:43:00,
2013-11-16 09:53:00,46.8,46.5,29.70,SE,144,7.0,18.0,99,0.00,CLR,,0.00,WeatherDisplay:10.37,2013-11-16 15:53:00,
2013-11-16 10:03:00,46.9,46.7,29.70,South,180,8.0,22.0,99,0.00,CLR,,0.00,WeatherDisplay:10.37,2013-11-16 16:03:00,
2013-11-16 10:13:00,47.3,47.0,29.69,South,171,10.0,38.0,99,0.00,CLR,,0.00,WeatherDisplay:10.37,2013-11-16 16:13:00,
2013-11-16 10:23:00,47.3,47.0,29.69,SSE,163,10.0,23.0,99,0.00,CLR,,0.00,WeatherDisplay:10.37,2013-11-16 16:23:00,
2013-11-16 10:33:00,47.5,47.2,29.68,SSE,150,9.0,22.0,99,0.00,CLR,,0.00,WeatherDisplay:10.37,2013-11-16 16:33:00,
2013-11-16 10:43:00,47.7,47.4,29.68,SSE,150,8.0,36.0,99,0.00,CLR,,0.00,WeatherDisplay:10.37,2013-11-16 16:43:00,
2013-11-16 10:53:00,47.8,47.6,29.67,South,180,8.0,26.0,99,0.00,CLR,,0.00,WeatherDisplay:10.37,2013-11-16 16:53:00,
2013-11-16 11:03:00,48.0,47.8,29.66,South,188,9.0,22.0,99,0.00,CLR,,0.00,WeatherDisplay:10.37,2013-11-16 17:03:00,
2013-11-16 11:13:00,48.2,47.9,29.66,South,185,14.0,31.0,99,0.00,CLR,,0.00,WeatherDisplay:10.37,2013-11-16 17:13:00,
2013-11-16 11:23:00,48.6,48.3,29.65,SSE,156,5.0,21.0,99,0.00,CLR,,0.00,WeatherDisplay:10.37,2013-11-16 17:23:00,
2013-11-16 11:33:00,48.6,48.3,29.63,SSE,161,14.0,26.0,99,0.00,CLR,,0.00,WeatherDisplay:10.37,2013-11-16 17:33:00,
2013-11-16 11:43:00,48.7,48.5,29.63,South,183,9.0,23.0,99,0.00,CLR,,0.00,WeatherDisplay:10.37,2013-11-16 17:43:00,
2013-11-16 11:53:00,48.9,48.7,29.63,South,181,13.0,30.0,99,0.00,CLR,,0.00,WeatherDisplay:10.37,2013-11-16 17:53:00,
2013-11-16 12:03:00,49.1,48.8,29.62,SSE,147,8.0,25.0,99,0.00,CLR,,0.00,WeatherDisplay:10.37,2013-11-16 18:03:00,
2013-11-16 12:13:00,49.5,49.2,29.61,SSE,163,12.0,25.0,99,0.00,CLR,,0.00,WeatherDisplay:10.37,2013-11-16 18:13:00,
2013-11-16 12:23:00,49.5,49.3,29.61,South,171,8.0,25.0,99,0.00,CLR,,0.00,WeatherDisplay:10.37,2013-11-16 18:23:00,
2013-11-16 12:33:00,49.7,49.5,29.61,South,171,3.0,18.0,99,0.00,CLR,,0.00,WeatherDisplay:10.37,2013-11-16 18:33:00,
2013-11-16 12:43:00,50.0,49.7,29.60,SSE,164,9.0,20.0,99,0.00,RA,,0.01,WeatherDisplay:10.37,2013-11-16 18:43:00,
2013-11-16 12:53:00,50.2,49.9,29.60,South,186,8.0,22.0,99,0.00,CLR,,0.01,WeatherDisplay:10.37,2013-11-16 18:53:00,
2013-11-16 13:03:00,50.2,49.9,29.59,South,185,7.0,18.0,99,0.00,CLR,,0.01,WeatherDisplay:10.37,2013-11-16 19:03:00,
2013-11-16 13:13:00,50.4,50.1,29.59,SSE,153,10.0,36.0,99,0.01,RA,,0.02,WeatherDisplay:10.37,2013-11-16 19:13:00,
2013-11-16 13:23:00,50.4,50.1,29.58,SSE,151,10.0,18.0,99,0.00,,,0.02,WeatherDisplay:10.37,2013-11-16 19:23:00,
2013-11-16 13:33:00,50.5,50.3,29.58,South,172,7.0,25.0,99,0.00,CLR,,0.02,WeatherDisplay:10.37,2013-11-16 19:33:00,
2013-11-16 13:43:00,50.7,50.4,29.57,SSE,164,17.0,35.0,99,0.00,CLR,,0.02,WeatherDisplay:10.37,2013-11-16 19:43:00,
2013-11-16 13:53:00,50.9,50.6,29.56,SSE,166,6.0,25.0,99,0.00,CLR,,0.02,WeatherDisplay:10.37,2013-11-16 19:53:00,
2013-11-16 14:03:00,51.1,50.8,29.56,South,181,14.0,21.0,99,0.00,CLR,,0.02,WeatherDisplay:10.37,2013-11-16 20:03:00,
2013-11-16 14:13:00,51.3,51.0,29.56,South,179,7.0,23.0,99,0.00,RA,,0.04,WeatherDisplay:10.37,2013-11-16 20:13:00,
2013-11-16 14:23:00,51.4,51.2,29.55,South,169,8.0,23.0,99,0.00,CLR,,0.04,WeatherDisplay:10.37,2013-11-16 20:23:00,
2013-11-16 14:33:00,51.6,51.3,29.53,SSE,155,9.0,29.0,99,0.00,CLR,,0.04,WeatherDisplay:10.37,2013-11-16 20:33:00,
2013-11-16 14:43:00,51.8,51.5,29.52,SSE,167,10.0,30.0,99,0.00,CLR,,0.04,WeatherDisplay:10.37,2013-11-16 20:43:00,
2013-11-16 14:53:00,52.0,51.7,29.51,SSE,164,9.0,35.0,99,0.01,RA,,0.05,WeatherDisplay:10.37,2013-11-16 20:53:00,
2013-11-16 15:03:00,52.2,51.9,29.50,ESE,117,6.0,26.0,99,0.00,CLR,,0.05,WeatherDisplay:10.37,2013-11-16 21:03:00,
2013-11-16 15:13:00,52.7,52.4,29.50,ESE,116,9.0,24.0,99,0.00,CLR,,0.05,WeatherDisplay:10.37,2013-11-16 21:13:00,
2013-11-16 15:23:00,52.8,52.6,29.50,SSE,163,10.0,23.0,99,0.00,CLR,,0.05,WeatherDisplay:10.37,2013-11-16 21:23:00,
2013-11-16 15:33:00,53.0,52.7,29.48,SSE,156,6.0,25.0,99,0.00,CLR,,0.05,WeatherDisplay:10.37,2013-11-16 21:33:00,
2013-11-16 15:43:00,53.2,52.9,29.49,SSE,167,7.0,21.0,99,0.00,CLR,,0.05,WeatherDisplay:10.37,2013-11-16 21:43:00,
2013-11-16 15:53:00,53.2,53.0,29.49,SSE,160,5.0,23.0,99,0.01,RA,,0.06,WeatherDisplay:10.37,2013-11-16 21:53:00,
2013-11-16 16:03:00,53.1,52.8,29.48,SSE,151,9.0,25.0,99,0.01,RA,,0.08,WeatherDisplay:10.37,2013-11-16 22:03:00,
2013-11-16 16:13:00,53.4,53.1,29.48,SSE,154,10.0,25.0,99,0.00,CLR,,0.08,WeatherDisplay:10.37,2013-11-16 22:13:00,
2013-11-16 16:23:00,53.4,53.2,29.47,SSE,165,8.0,32.0,99,0.01,RA,,0.11,WeatherDisplay:10.37,2013-11-16 22:23:00,
2013-11-16 16:33:00,53.6,53.3,29.47,SSE,165,14.0,32.0,99,0.00,CLR,,0.11,WeatherDisplay:10.37,2013-11-16 22:33:00,
2013-11-16 16:43:00,53.9,53.7,29.47,SE,140,10.0,23.0,99,0.00,CLR,,0.11,WeatherDisplay:10.37,2013-11-16 22:43:00,
2013-11-16 16:53:00,54.1,53.9,29.47,South,173,7.0,23.0,99,0.00,CLR,,0.11,WeatherDisplay:10.37,2013-11-16 22:53:00,
2013-11-16 17:03:00,54.3,54.0,29.46,SSE,162,7.0,22.0,99,0.00,CLR,,0.11,WeatherDisplay:10.37,2013-11-16 23:03:00,
2013-11-16 17:13:00,54.3,54.0,29.46,SSE,157,10.0,36.0,99,0.00,CLR,,0.11,WeatherDisplay:10.37,2013-11-16 23:13:00,
2013-11-16 17:23:00,54.3,54.0,29.46,SE,139,13.0,28.0,99,0.00,CLR,,0.11,WeatherDisplay:10.37,2013-11-16 23:23:00,
2013-11-16 17:33:00,54.5,54.2,29.46,South,173,6.0,33.0,99,0.00,RA,,0.12,WeatherDisplay:10.37,2013-11-16 23:33:00,
2013-11-16 17:43:00,54.7,54.4,29.46,South,182,6.0,30.0,99,0.00,CLR,,0.12,WeatherDisplay:10.37,2013-11-16 23:43:00,
2013-11-16 17:53:00,54.9,54.6,29.46,South,170,10.0,37.0,99,0.00,CLR,,0.12,WeatherDisplay:10.37,2013-11-16 23:53:00,
2013-11-16 18:03:00,55.0,54.8,29.46,SSE,150,14.0,24.0,99,0.00,CLR,,0.12,WeatherDisplay:10.37,2013-11-17 00:03:00,
2013-11-16 18:13:00,55.4,55.1,29.46,SSE,156,14.0,33.0,99,0.00,CLR,,0.12,WeatherDisplay:10.37,2013-11-17 00:13:00,
2013-11-16 18:23:00,55.9,55.7,29.46,South,185,9.0,25.0,99,0.00,CLR,,0.12,WeatherDisplay:10.37,2013-11-17 00:23:00,
2013-11-16 18:33:00,56.1,55.8,29.46,South,184,9.0,26.0,99,0.00,CLR,,0.12,WeatherDisplay:10.37,2013-11-17 00:33:00,
2013-11-16 18:43:00,56.3,56.0,29.46,South,182,9.0,30.0,99,0.00,CLR,,0.12,WeatherDisplay:10.37,2013-11-17 00:43:00,
2013-11-16 18:53:00,56.5,56.2,29.46,South,182,9.0,28.0,99,0.00,CLR,,0.12,WeatherDisplay:10.37,2013-11-17 00:53:00,
2013-11-16 19:03:00,56.5,56.2,29.46,SSW,192,7.0,16.0,99,0.00,CLR,,0.12,WeatherDisplay:10.37,2013-11-17 01:03:00,
2013-11-16 19:13:00,56.5,56.2,29.46,SSW,192,9.0,24.0,99,0.00,CLR,,0.12,WeatherDisplay:10.37,2013-11-17 01:13:00,
2013-11-16 19:23:00,56.7,56.4,29.46,SSW,193,8.0,22.0,99,0.00,CLR,,0.12,WeatherDisplay:10.37,2013-11-17 01:23:00,
2013-11-16 19:33:00,57.0,56.7,29.46,SSW,199,12.0,37.0,99,0.00,CLR,,0.12,WeatherDisplay:10.37,2013-11-17 01:33:00,
2013-11-16 19:43:00,57.2,56.9,29.45,SSW,195,10.0,29.0,99,0.00,RA,,0.13,WeatherDisplay:10.37,2013-11-17 01:43:00,
2013-11-16 19:53:00,57.2,56.9,29.45,South,190,17.0,31.0,99,0.00,CLR,,0.13,WeatherDisplay:10.37,2013-11-17 01:53:00,
2013-11-16 20:03:00,57.2,56.9,29.45,SSW,204,14.0,25.0,99,0.00,CLR,,0.13,WeatherDisplay:10.37,2013-11-17 02:03:00,
2013-11-16 20:13:00,57.2,56.9,29.46,SSW,203,8.0,43.0,99,0.00,CLR,,0.13,WeatherDisplay:10.37,2013-11-17 02:13:00,
2013-11-16 20:23:00,57.2,56.9,29.46,SSW,200,10.0,29.0,99,0.00,CLR,,0.13,WeatherDisplay:10.37,2013-11-17 02:23:00,
2013-11-16 20:33:00,57.2,57.0,29.46,SSW,196,9.0,36.0,99,0.00,CLR,,0.13,WeatherDisplay:10.37,2013-11-17 02:33:00,
2013-11-16 20:43:00,57.4,57.1,29.46,South,185,12.0,28.0,99,0.00,CLR,,0.13,WeatherDisplay:10.37,2013-11-17 02:43:00,
2013-11-16 20:53:00,57.4,57.1,29.47,South,169,10.0,30.0,99,0.00,CLR,,0.13,WeatherDisplay:10.37,2013-11-17 02:53:00,
2013-11-16 21:03:00,57.6,57.3,29.47,South,187,8.0,25.0,99,0.00,CLR,,0.13,WeatherDisplay:10.37,2013-11-17 03:03:00,
2013-11-16 21:13:00,57.6,57.3,29.47,South,178,12.0,38.0,99,0.00,CLR,,0.13,WeatherDisplay:10.37,2013-11-17 03:13:00,
2013-11-16 21:23:00,57.6,57.3,29.46,South,191,8.0,30.0,99,0.00,CLR,,0.13,WeatherDisplay:10.37,2013-11-17 03:23:00,
2013-11-16 21:33:00,57.6,57.3,29.46,South,186,8.0,30.0,99,0.00,CLR,,0.13,WeatherDisplay:10.37,2013-11-17 03:33:00,
2013-11-16 21:43:00,57.6,57.3,29.45,SSW,203,9.0,32.0,99,0.00,CLR,,0.13,WeatherDisplay:10.37,2013-11-17 03:43:00,
2013-11-16 21:53:00,57.6,57.3,29.46,SSW,209,10.0,29.0,99,0.00,CLR,,0.13,WeatherDisplay:10.37,2013-11-17 03:53:00,
2013-11-16 22:03:00,57.6,57.3,29.46,South,180,9.0,26.0,99,0.00,CLR,,0.13,WeatherDisplay:10.37,2013-11-17 04:03:00,
2013-11-16 22:13:00,57.6,57.3,29.46,South,175,9.0,20.0,99,0.00,CLR,,0.13,WeatherDisplay:10.37,2013-11-17 04:13:00,
2013-11-16 22:23:00,57.6,57.3,29.47,South,190,9.0,26.0,99,0.00,CLR,,0.13,WeatherDisplay:10.37,2013-11-17 04:23:00,
2013-11-16 22:33:00,57.6,57.3,29.47,South,191,9.0,22.0,99,0.00,CLR,,0.13,WeatherDisplay:10.37,2013-11-17 04:33:00,
2013-11-16 22:43:00,57.4,57.1,29.47,SSW,196,8.0,29.0,99,0.00,CLR,,0.13,WeatherDisplay:10.37,2013-11-17 04:43:00,
2013-11-16 22:53:00,57.3,57.0,29.47,South,185,9.0,18.0,99,0.00,CLR,,0.13,WeatherDisplay:10.37,2013-11-17 04:53:00,
2013-11-16 23:03:00,57.4,57.1,29.46,SSW,195,5.0,18.0,99,0.00,CLR,,0.13,WeatherDisplay:10.37,2013-11-17 05:03:00,
2013-11-16 23:13:00,57.3,57.0,29.46,South,189,9.0,25.0,99,0.00,CLR,,0.13,WeatherDisplay:10.37,2013-11-17 05:13:00,
2013-11-16 23:23:00,56.8,56.6,29.46,SSW,192,3.0,21.0,99,0.00,CLR,,0.13,WeatherDisplay:10.37,2013-11-17 05:23:00,
2013-11-16 23:33:00,56.7,56.4,29.46,South,187,6.0,23.0,99,0.00,CLR,,0.13,WeatherDisplay:10.37,2013-11-17 05:33:00,
2013-11-16 23:43:00,56.7,56.4,29.46,SSW,192,6.0,22.0,99,0.00,CLR,,0.13,WeatherDisplay:10.37,2013-11-17 05:43:00,
2013-11-16 23:53:00,56.7,56.5,29.47,SSW,201,10.0,24.0,99,0.00,CLR,,0.13,WeatherDisplay:10.37,2013-11-17 05:53:00,